This demonstration page uses our WeatherBlox Daily Observations layout. Learn more.

Left ArrowRight Arrow

44.31136, -96.79839

Hourly Observations for May 16, 2022

Temp ( °F °C ) Dew Point ( °F °C ) Humidity (%) Winds ( mph kmh ) Pressure ( in mb ) Visibility ( mi km ) Precip ( " mm )
12:56 am 00:56 Clear 49 9.4 39 3.9 69 69 WSW 5 7 30.03 1017 10 16 0.00 0.00
1:56 am 01:56 Clear 46 7.8 39 3.9 77 77 Calm 30.03 1017 10 16 0.00 0.00
2:56 am 02:56 Partly Cloudy 48 8.9 38 3.3 68 68 Calm 30.03 1017 10 16 0.00 0.00
3:56 am 03:56 Clear 46 7.8 38 3.3 73 73 Calm 30.02 1017 10 16 0.00 0.00
4:56 am 04:56 Clear 45 7.2 38 3.3 77 77 SW 3 6 30.03 1017 10 16 0.00 0.00
5:56 am 05:56 Partly Cloudy 43 6.1 38 3.3 82 82 Calm 30.04 1017 10 16 0.00 0.00
6:56 am 06:56 Cloudy 46 7.8 39 3.9 77 77 Calm 30.06 1018 10 16 0.00 0.00
7:56 am 07:56 Sunny 55 12.8 43 6.1 64 64 Calm 30.06 1018 10 16 0.00 0.00
8:56 am 08:56 Sunny 63 17.2 43 6.1 48 48 NNW 5 7 30.06 1018 10 16 0.00 0.00
9:56 am 09:56 Sunny 68 20 40 4.4 36 36 NW 7 11 30.06 1018 10 16 0.00 0.00
10:56 am 10:56 Sunny 69 20.6 36 2.2 30 30 VRB 3 6 30.06 1018 10 16 0.00 0.00
11:56 am 11:56 Sunny 70 21.1 35 1.7 28 28 Calm 30.05 1018 10 16 0.00 0.00
12:56 pm 12:56 Sunny 72 22.2 39 3.9 30 30 NW 8 13 30.03 1017 10 16 0.00 0.00
1:56 pm 13:56 Sunny 73 22.8 38 3.3 28 28 VRB 6 9 30.02 1017 10 16 0.00 0.00
2:56 pm 14:56 Sunny 75 23.9 37 2.8 25 25 VRB 5 7 29.99 1016 10 16 0.00 0.00
3:56 pm 15:56 Sunny 77 25 37 2.8 24 24 Calm 29.98 1015 10 16 0.00 0.00
4:56 pm 16:56 Sunny 78 25.6 39 3.9 25 25 SE 3 6 29.97 1015 10 16 0.00 0.00
5:56 pm 17:56 Sunny 76 24.4 39 3.9 26 26 NW 3 6 29.96 1015 10 16 0.00 0.00
6:56 pm 18:56 Sunny 74 23.3 39 3.9 28 28 NE 9 15 29.96 1015 10 16 0.00 0.00
7:56 pm 19:56 Sunny 66 18.9 39 3.9 37 37 ENE 15 24 29.97 1015 10 16 0.00 0.00
8:56 pm 20:56 Mostly Clear 63 17.2 41 5 45 45 ENE 16 26 29.97 1015 10 16 0.00 0.00
9:56 pm 21:56 Partly Cloudy 61 16.1 41 5 48 48 E 16 26 29.97 1015 10 16 0.00 0.00
10:56 pm 22:56 Cloudy with Light Rain 59 15 44 6.7 58 58 E 12 19 29.98 1015 10 16 0.00 0.00
11:56 pm 23:56 Cloudy with Light Rain 57 13.9 44 6.7 62 62 E 14 22 29.95 1014 10 16 0.00 0.00

Powered by AerisWeather